Other Surface Observations
Issued by NWS Charleston, SC

Home | Current Version | Previous Version | Text Only | Print | Product List | Glossary On
Versions: 1 2 3 4 5 6 7 8 9 10 11 12 13 14 15 16 17 18 19 20 21 22 23 24 25 26 27 28 29 30 31 32 33 34 35 36 37 38 39 40 41 42 43 44 45 46 47 48 49 50
690
SXUS52 KCHS 240227
OSOCHS

Marine Observations
National Weather Service Charleston SC
1000 PM EDT WED MAY 23 2018

...Downtown Charleston and Harbor...

CITY           SKY/WX    TMP DP  RH WIND       PRES   REMARKS
Waterfront Prk   N/A     77  71  82 S6        29.93R

...Lake Moultrie...

CITY           SKY/WX    TMP DP  RH WIND       PRES   REMARKS
Pinopolis        N/A     73  68  83 VRB3      30.01R

...Lake and Supplemental Coastal Observations...

STATION/POSITION TIME  TEMP    WIND        PRES    WAVE   SWELL
                       AIR SEA DIR/SP/G            HT/PER HT/PER/DIR
                 (UTC) (F)     (DEG/KT/KT) (MB)    (FT/S) (FT/S/D)
Fort Pulaski     0200   76 79  180/  4/  6 1019.1
Sapelo Island    0200   77     180/ 10     1019.0
Winyah Bay       0145   75     220/  6     1019.0R
Lake Murray      0130   78     200/  9/ 11 1017.3R
ACE Basin NERRS  0145   77        CALM     1019.0S


...C-MAN and Buoy Observations...

STATION/POSITION TIME  TEMP    WIND        PRES    WAVE   SWELL
                       AIR SEA DIR/SP/G            HT/PER HT/PER/DIR
                 (UTC) (F)     (DEG/KT/KT) (MB)    (FT/S) (FT/S/D)
Buoy 41004       0210      75  210/  6/  8 1018.9
Buoy 41008       0150   76 76  150/ 12/ 14 1018.5R   3/ 8   2/110/ 8
Folly Beach CMAN 0200   76     200/ 11/ 14 1019.4S
Pritchards Islan NOT AVBL
Capers NS Buoy   0208   76 77  230/ 10/ 14 1019.7R
Fripp NS Buoy    0208   77 79  200/ 12/ 16 1018.7R
5E St. Marys GA  0200      77                N/A     3/ 4


STATION/POSITION TIME  TEMP    WIND        PRES    WAVE   SWELL
                       AIR SEA DIR/SP/G            HT/PER HT/PER/DIR
                 (UTC) (F)     (DEG/KT/KT) (MB)    (FT/S) (FT/S/D)
Frying Pan Buoy  0210   76 76  220/ 12/ 16 1018.9
Buoy 41025       0210   70 74  340/ 25/ 37 1018.8
Cape Lookout NC  0200          220/ 10/ 14 1018.1F
Buoy 41002       0210      78  210/ 12/ 14 1020.0
Buoy 41010       0210   78 79  140/  8/ 10 1020.4
St Augustine FL  0200   78 80  160/ 13/ 15 1019.1R

$$




USA.gov is the U.S. government's official web portal to all federal, state and local government web resources and services.